Regional Weather Roundup
Issued by NWS

Home | Current Version | Previous Version | Graphics & Text | Print | Product List | Glossary On
Versions: 1 2 3 4 5 6 7 8 9 10 11 12 13 14 15 16 17 18 19 20 21 22 23 24 25 26 27 28 29 30 31 32 33 34 35 36 37 38 39 40 41 42 43 44 45 46 47 48 49 50
000
ASUS43 KBIS 230310
RWRND

NORTH DAKOTA REGIONAL WEATHER ROUNDUP
NATIONAL WEATHER SERVICE BISMARCK ND
1000 PM CDT FRI JUL 22 2016

NOTE: "FAIR" INDICATES FEW OR NO CLOUDS BELOW 12,000 FEET WITH NO
SIGNIFICANT WEATHER AND/OR OBSTRUCTIONS TO VISIBILITY.


NDZ001>003-009>011-017-230400-
NORTHWEST NORTH DAKOTA

CITY           SKY/WX    TMP DP  RH WIND       PRES   REMARKS
WILLISTON      CLOUDY    81  62  52 E22G30    29.84F
MINOT          CLOUDY    77  63  61 E13       29.93S
MINOT AFB      CLOUDY    73  63  70 E14       29.92S
$$

NDZ018>021-031>035-040>046-230400-
SOUTHWEST NORTH DAKOTA

CITY           SKY/WX    TMP DP  RH WIND       PRES   REMARKS
BISMARCK       LGT RAIN  70  68  93 S12       30.06R
DICKINSON      CLOUDY    66  63  90 E29G38    29.91F
GARRISON         N/A     74  68  81 SE12      29.96R
HETTINGER ARPT CLOUDY    70  64  81 E21G31    29.96R THUNDER
$$

NDZ004>008-012>016-024-026-027-054-230400-
NORTHEAST NORTH DAKOTA

CITY           SKY/WX    TMP DP  RH WIND       PRES   REMARKS
GRAND FORKS    CLOUDY    77  67  71 E3        29.98S
GRND FRKS AFB  CLOUDY    75  66  73 E3        30.00R
DEVILS LAKE    CLOUDY    75  66  73 E10       30.00F
$$

NDZ022-023-025-028>030-036>039-047>053-230400-
SOUTHEAST NORTH DAKOTA

CITY           SKY/WX    TMP DP  RH WIND       PRES   REMARKS
FARGO          CLOUDY    76  67  73 NE8       29.97R
JAMESTOWN      LGT RAIN  74  72  93 S3        30.04R
$$




USA.gov is the U.S. government's official web portal to all federal, state and local government web resources and services.